Location: Choisy
(48.7685°N, 2.4187°E)
Time: 09:38:46
(UTC+00:00)

ATLAS 3B R/B - Pass Details

Date: 05 December 2023
Orbit: 947 x 1247 km, 63.8° (Epoch: 10 February)

Event Time Altitude Azimuth Distance (km) Brightness Sun altitude
Exits shadow 03:09:37 41° 77° (ENE) 1,608 3.8 -41.2°
Drops below altitude 10° 03:14:48 10° 47° (NE) 3,120 5.6 -40.4°
Sets 03:17:43 0° 43° (NE) 4,121 6.4 -39.9°
